Simultaneous Nadir Overpasses (SNOs) Predictions

Prediction of SNOs near US between AQUA and NPP Satellite Orbit:

Table of predicted SNOs near US for the next 10.0 days since TLE Epoch: 11/13/2015
Index Date (AQUA) Time (AQUA) AQUA Lat,Lon Date (NPP) Time (NPP) NPP Lat,Lon Distance(km) Time Diff (sec)
1 11/14/2015 07:18:44 49.90, -76.02 11/14/2015 07:22:47 50.36, -78.22 164.72 243
2 11/14/2015 08:57:37 49.90,-100.74 11/14/2015 09:04:15 50.46,-103.54 209.23 398
3 11/16/2015 18:16:51 49.95, -80.19 11/16/2015 18:13:03 49.66, -81.70 113.05 228
4 11/16/2015 19:55:44 49.95,-104.91 11/16/2015 19:54:31 49.56,-107.03 158.35 73
5 11/16/2015 21:29:39 32.22,-123.75 11/16/2015 21:30:52 31.68,-126.22 240.78 73
6 11/19/2015 07:45:29 20.04, -89.52 11/19/2015 07:37:47 20.02, -89.39 13.61 462
7 11/19/2015 09:21:14
